Other Public Products
Issued by NWS Grand Forks, ND

Home | Current Version | Previous Version | Text Only | Print | Product List | Glossary Off
Versions: 1 2 3 4 5 6 7 8 9 10 11 12 13 14 15 16 17 18 19 20 21 22 23 24 25 26 27 28 29 30 31 32 33 34 35 36 37 38 39 40 41 42 43 44 45 46 47 48 49 50

000
FPUS83 KFGF 310610
OPUFGF
PRAIRIE TO PINES WEATHER ROUNDUP
NATIONAL WEATHER SERVICE EASTERN NORTH DAKOTA/GRAND FORKS ND
1200 AM CST SAT JAN 31 2015

 **SATELLITE DATA USED TO AUGMENT SKY COVER AT AUTOMATED STATIONS**
 *****  WEATHER ACROSS EASTERN NORTH DAKOTA  *****

CITY           SKY/WX    TMP DP  RH WIND       PRES   REMARKS
GRAND FORKS    CLOUDY    18  13  80 N17G25    30.23R WCI   3
6HR MIN TEMP:  18; 6HR MAX TEMP:  30;

GRAND FORKS AF CLOUDY    18  13  79 N17G24    30.24R WCI   3
GRAND CITY NWS   N/A     18 N/A N/A N23         N/A  WCI   0
BUXTON         NOT AVBL
DEVILS LAKE    CLOUDY    19  12  73 N14       30.21S WCI   6
6HR MIN TEMP:  19; 6HR MAX TEMP:  27;

FARGO          CLOUDY    26  20  77 N21       30.18R WCI  12
6HR MIN TEMP:  22; 6HR MAX TEMP:  30;

WAHPETON ARPT  MOCLDY    27  23  86 N14G20    30.16R WCI  15
$$

 *****  WEATHER ACROSS CENTRAL AND WESTERN NORTH DAKOTA  *****

CITY           SKY/WX    TMP DP  RH WIND       PRES   REMARKS
JAMESTOWN      CLOUDY    24  21  88 N17       30.18R WCI  11
6HR MIN TEMP:  24; 6HR MAX TEMP:  32;

BISMARCK       CLOUDY    26  24  92 NE14      30.19R WCI  14
6HR MIN TEMP:  24; 6HR MAX TEMP:  39;

MINOT          CLOUDY    20  16  84 N13       30.22S WCI   7
6HR MIN TEMP:  20; 6HR MAX TEMP:  26;

MINOT AFB      CLOUDY    20  20  99 NE13      30.23R WCI   7
6HR MIN TEMP:  20; 6HR MAX TEMP:  25;

GARRISON         N/A     24  22  91 NE9       30.18F WCI  14
6HR MIN TEMP:  23; 6HR MAX TEMP:  32;

WILLISTON      CLOUDY    22  19  89 NE15      30.20F WCI   9
6HR MIN TEMP:  22; 6HR MAX TEMP:  35;

DICKINSON      CLEAR     24  20  84 E7        30.12S WCI  16
6HR MIN TEMP:  21; 6HR MAX TEMP:  37;

HETTINGER      CLEAR     19  16  88 CALM      30.13F
6HR MIN TEMP:  19; 6HR MAX TEMP:  37;

$$

 *****  OTHER OBSERVATIONS NORTHEAST NORTH DAKOTA  *****

CITY           SKY/WX    TMP DP  RH WIND       PRES   REMARKS
WALHALLA       FLURRIES  16  14  93 N21       30.29R WCI  -2
LANGDON        NOT AVBL
CAVALIER       CLOUDY    16  10  79 N22       30.28R WCI  -2
GRAFTON        NOT AVBL
CANDO          CLOUDY    18  10  73 N15G22    30.25R WCI   3
FORT TOTTEN      N/A     19  15  84 N7        29.95  WCI  10
ROLLA          CLOUDY    14  14 100 NE16      30.22S WCI  -2
RUGBY          CLOUDY    19  18  93 NE10      30.24R WCI   8
 ***** THE ABOVE OBSERVATIONS ARE NON NWS ARE NOT QUALITY
        CONTROLLED AND MAY MIS-REPORT RAIN FOR SNOW...
$$

 *****  OTHER OBSERVATIONS SOUTHEAST NORTH DAKOTA *****

CITY           SKY/WX    TMP DP  RH WIND       PRES   REMARKS
COOPERSTOWN    NOT AVBL
VALLEY CITY    CLOUDY    23  23 100 N12       30.17S WCI  12
OAKES            N/A     25  25 100 N15       30.17S WCI  12
GWINNER        CLOUDY    30  30 100 N15       30.17F WCI  19
BUFFALO        NOT AVBL
WYNDMERE         N/A     27  25  93 N12         N/A  WCI  16
 ***** THE ABOVE OBSERVATIONS ARE NON NWS ARE NOT QUALITY
       CONTROLLED AND MAY MIS-REPORT RAIN FOR SNOW...
$$

  *****  WEATHER ACROSS NORTHERN MINNESOTA  *****

CITY           SKY/WX    TMP DP  RH WIND       PRES   REMARKS
FLAG ISLAND    CLOUDY    12  10  92 NW20      30.15R WCI  -6
WARROAD        CLOUDY    16  12  86 NW10      30.17R WCI   3
ROSEAU         CLOUDY    19  14  79 NW16      30.18R WCI   5
HALLOCK        CLOUDY    18  12  79 N17G24    30.26R WCI   2
THF RVR FALLS  CLOUDY    19  18  93 NW15      30.17S WCI   5
6HR MIN TEMP:  19; 6HR MAX TEMP:  25;

HALSTAD          N/A     22  18  83 N14         N/A  WCI   9
FOSSTON        CLOUDY    19  18  93 NW15      30.14S WCI   5
BAUDETTE       CLOUDY    18  14  84 NW14      30.12R WCI   4
6HR MIN TEMP:  17; 6HR MAX TEMP:  18;

WASKISH        CLOUDY    19  16  86 CALM      30.12R
CROOKSTON      CLOUDY    19  16  86 N18G26    30.21S WCI   4
$$
  *****  WEATHER ACROSS CENTRAL AND WEST MINNESOTA  *****

CITY           SKY/WX    TMP DP  RH WIND       PRES   REMARKS
BEMIDJI        CLOUDY    24  20  88 NW9       30.09S WCI  14
PARK RAPIDS    MOCLDY    20  17  88 NW5       30.09S WCI  13
6HR MIN TEMP:  18; 6HR MAX TEMP:  24;

WADENA         CLEAR     16  16 100 CALM      30.10R FOG
DETROIT LAKES  CLOUDY    25  23  93 NW14      30.13R WCI  13
MOORHEAD       CLOUDY    27  25  93 N16       30.18R WCI  14
FERGUS FALLS   CLEAR     25  21  86 N9        30.16R WCI  15
ELBOW LAKE     FAIR      23  21  93 NW8       30.11S WCI  13
MORRIS MN      CLEAR     25  23  93 NW9       30.12R WCI  15
STAPLES        CLEAR     16  14  93 CALM      30.09S
WHEATON        CLEAR     25  21  86 NW9       30.18R WCI  15
$$
  *****  WEATHER ELSEWHERE ACROSS MINNESOTA  *****

CITY           SKY/WX    TMP DP  RH WIND       PRES   REMARKS
DULUTH         CLOUDY    18   9  68 SW6       30.09F WCI  10
6HR MIN TEMP:  14; 6HR MAX TEMP:  18;

INTRNTL FALLS  CLOUDY    15  10  80 W3        30.10S
6HR MIN TEMP:  12; 6HR MAX TEMP:  15; 6HR PCP: TRACE;

ELY            FLURRIES  12   9  85 SW3       30.08S
CLOQUET        CLOUDY    19  10  68 S3        30.10F
BRAINERD       CLOUDY    24  19  81 CALM      30.10F
6HR MIN TEMP:  22; 6HR MAX TEMP:  24;

HIBBING        CLOUDY    17   7  64 CALM      30.09F
6HR MIN TEMP:  16; 6HR MAX TEMP:  17;

ALEXANDRIA     CLEAR     20  18  92 W6        30.10S WCI  12
6HR MIN TEMP:  19; 6HR MAX TEMP:  25;

SAINT CLOUD    CLEAR     20  18  92 SE5       30.10F WCI  13
6HR MIN TEMP:  19; 6HR MAX TEMP:  25;

MINNEAPOLIS    PTCLDY    25  19  78 S5        30.15F WCI  19
6HR MIN TEMP:  24; 6HR MAX TEMP:  27;

$$

  *****  WEATHER ACROSS SOUTH DAKOTA  *****

CITY           SKY/WX    TMP DP  RH WIND       PRES   REMARKS
SIOUX FALLS    CLEAR     32  26  78 SW5       30.12F
6HR MIN TEMP:  31; 6HR MAX TEMP:  35;

BROOKINGS      NOT AVBL
WATERTOWN      CLEAR     26  25  96 CALM      30.10F FOG
6HR MIN TEMP:  21; 6HR MAX TEMP:  31;

HURON          CLEAR     26  23  88 N7        30.12F WCI  18
6HR MIN TEMP:  23; 6HR MAX TEMP:  38;

SISSETON         N/A     27  24  89 N13       30.15R WCI  16
ABERDEEN       CLOUDY    30  27  88 N12       30.16S FOG     WCI  20
6HR MIN TEMP:  25; 6HR MAX TEMP:  34;

MITCHELL       PTCLDY    27  25  92 S3        30.12F
PIERRE         CLEAR     22  19  89 CALM      30.11F
6HR MIN TEMP:  22; 6HR MAX TEMP:  37;

MOBRIDGE       CLEAR     26  23  88 N9        30.11F WCI  17
RAPID CITY     MOCLDY    27  22  81 NW8       30.11S WCI  19
6HR MIN TEMP:  27; 6HR MAX TEMP:  41;

$$

  *****  SOME WEATHER IN NEARBY STATES *****

CITY           SKY/WX    TMP DP  RH WIND       PRES   REMARKS
GLASGOW MT     CLEAR     28  24  85 E15       30.09S WCI  16
6HR MIN TEMP:  28; 6HR MAX TEMP:  34;

GREAT FALLS MT CLEAR     32  20  61 S15       29.99F WCI  22
6HR MIN TEMP:  27; 6HR MAX TEMP:  41;

CHEYENNE WY    CLOUDY    32  23  69 N9        30.03F WCI  24
6HR MIN TEMP:  32; 6HR MAX TEMP:  39;

SCOTTSBLUFF NE CLOUDY    35  27  72 NW3       30.06F
6HR MIN TEMP:  33; 6HR MAX TEMP:  39;

OMAHA NE       CLOUDY    37  26  64 S10       30.24F
6HR MIN TEMP:  31; 6HR MAX TEMP:  37;

DES MOINES IA  MOCLDY    29  18  63 S7        30.27F WCI  22
6HR MIN TEMP:  27; 6HR MAX TEMP:  33;

DAVENPORT IA   CLOUDY    24  17  74 S7        30.33F WCI  16
6HR MIN TEMP:  19; 6HR MAX TEMP:  25;

CHICAGO IL     PTCLDY    20  13  74 S7        30.35F WCI  11
6HR MIN TEMP:  18; 6HR MAX TEMP:  25;

EAU CLAIRE WI  CLOUDY    19   8  62 SE3       30.18F
6HR MIN TEMP:  14; 6HR MAX TEMP:  19;

LA CROSSE WI   PTCLDY    25  12  58 SE8       30.23F WCI  16
6HR MIN TEMP:  21; 6HR MAX TEMP:  25;

$$

  *****  SOME NATIONAL WEATHER *****

CITY           SKY/WX    TMP DP  RH WIND       PRES   REMARKS
LA GUARDIA NY  PTCLDY    19   7  59 NW25G35   30.02R WCI   1
6HR MIN TEMP:  19; 6HR MAX TEMP:  28;



USA.gov is the U.S. government's official web portal to all federal, state and local government web resources and services.